Location: Unspecified
(51.5147°N, 7.4673°E)
Time: 08:50:22
(UTC+01:00)

Vanguard 1 Rocket - Pass Details

Date: 17 February 2026
Orbit: 653 x 4214 km, 34.3° (Epoch: 7 March)

Event Time Altitude Azimuth Distance (km) Brightness Sun altitude
Rises 16:29:19 0° 252° (WSW) 5,222 13.0 10.2°
Reaches altitude 10° 16:32:22 10° 245° (WSW) 4,609 13.6 9.8°
Maximum altitude 16:45:14 43° 180° (S) 3,928 11.1 8.1°
Drops below altitude 10° 17:06:19 10° 120° (ESE) 7,297 11.7 5.3°
Sets 17:12:51 0° 115° (ESE) 8,448 11.9 4.4°
